owner,sensor,date,latitude,longitude,air_pressure(mBar),qcFlag 
TABS,ioos:station:wmo:42047:1,2013-03-01T00:00:00Z,27.8966,-93.5973,1021.23,11111222 
TABS,ioos:station:wmo:42047:1,2013-03-01T00:30:00Z,27.8966,-93.5973,1021.3,11111222 
TABS,ioos:station:wmo:42047:1,2013-03-01T01:00:00Z,27.8966,-93.5973,1021.72,11111222 
TABS,ioos:station:wmo:42047:1,2013-03-01T01:30:00Z,27.8966,-93.5973,1021.62,11111222 
TABS,ioos:station:wmo:42047:1,2013-03-01T02:00:00Z,27.8966,-93.5973,1021.94,11111222 
TABS,ioos:station:wmo:42047:1,2013-03-01T02:30:00Z,27.8966,-93.5973,1021.86,11111222 
TABS,ioos:station:wmo:42047:1,2013-03-01T03:00:00Z,27.8966,-93.5973,1022.25,11111222 
TABS,ioos:station:wmo:42047:1,2013-03-01T03:30:00Z,27.8966,-93.5973,1022.41,11111222 
TABS,ioos:station:wmo:42047:1,2013-03-01T04:00:00Z,27.8966,-93.5973,1022.66,11111222 
TABS,ioos:station:wmo:42047:1,2013-03-01T04:30:00Z,27.8966,-93.5973,1022.39,11111222 
TABS,ioos:station:wmo:42047:1,2013-03-01T05:00:00Z,27.8966,-93.5973,1022.08,11111222 
TABS,ioos:station:wmo:42047:1,2013-03-01T05:30:00Z,27.8966,-93.5973,1022.01,11111222 
TABS,ioos:station:wmo:42047:1,2013-03-01T06:00:00Z,27.8966,-93.5973,1021.88,11111222 
TABS,ioos:station:wmo:42047:1,2013-03-01T06:30:00Z,27.8966,-93.5973,1022.18,11111222 
TABS,ioos:station:wmo:42047:1,2013-03-01T07:00:00Z,27.8966,-93.5973,1022.22,11111222 
TABS,ioos:station:wmo:42047:1,2013-03-01T07:30:00Z,27.8966,-93.5973,1022.57,11111222 
TABS,ioos:station:wmo:42047:1,2013-03-01T08:00:00Z,27.8966,-93.5973,1022.49,11111222 
TABS,ioos:station:wmo:42047:1,2013-03-01T08:30:00Z,27.8966,-93.5973,1022.24,11111222 
TABS,ioos:station:wmo:42047:1,2013-03-01T09:00:00Z,27.8966,-93.5973,1021.97,11111222 
TABS,ioos:station:wmo:42047:1,2013-03-01T09:30:00Z,27.8966,-93.5973,1021.87,11111222 
TABS,ioos:station:wmo:42047:1,2013-03-01T10:00:00Z,27.8966,-93.5973,1021.98,11111222 
TABS,ioos:station:wmo:42047:1,2013-03-01T10:30:00Z,27.8966,-93.5973,1021.96,11111222 
TABS,ioos:station:wmo:42047:1,2013-03-01T11:00:00Z,27.8966,-93.5973,1021.91,11111222 
TABS,ioos:station:wmo:42047:1,2013-03-01T11:30:00Z,27.8966,-93.5973,1022.03,11111222 
TABS,ioos:station:wmo:42047:1,2013-03-01T12:00:00Z,27.8966,-93.5973,1022.13,11111222 
TABS,ioos:station:wmo:42047:1,2013-03-01T12:30:00Z,27.8966,-93.5973,1022.22,11111222 
TABS,ioos:station:wmo:42047:1,2013-03-01T13:00:00Z,27.8966,-93.5973,1022.46,11111222 
TABS,ioos:station:wmo:42047:1,2013-03-01T13:30:00Z,27.8966,-93.5973,1022.42,11111222 
TABS,ioos:station:wmo:42047:1,2013-03-01T14:00:00Z,27.8966,-93.5973,1023.12,11111222 
TABS,ioos:station:wmo:42047:1,2013-03-01T14:30:00Z,27.8966,-93.5973,1023.52,11111222 
TABS,ioos:station:wmo:42047:1,2013-03-01T15:00:00Z,27.8966,-93.5973,1023.59,11111222 
TABS,ioos:station:wmo:42047:1,2013-03-01T15:30:00Z,27.8966,-93.5973,1023.54,11111222 
TABS,ioos:station:wmo:42047:1,2013-03-01T16:00:00Z,27.8966,-93.5973,1023.49,11111222 
TABS,ioos:station:wmo:42047:1,2013-03-01T16:30:00Z,27.8966,-93.5973,1023.53,11111222 
TABS,ioos:station:wmo:42047:1,2013-03-01T17:00:00Z,27.8966,-93.5973,1023.8,11111222 
TABS,ioos:station:wmo:42047:1,2013-03-01T17:30:00Z,27.8966,-93.5973,1023.86,11111222 
TABS,ioos:station:wmo:42047:1,2013-03-01T18:00:00Z,27.8966,-93.5973,1023.44,11111222 
TABS,ioos:station:wmo:42047:1,2013-03-01T18:30:00Z,27.8966,-93.5973,1023.26,11111222 
TABS,ioos:station:wmo:42047:1,2013-03-01T19:00:00Z,27.8966,-93.5973,1022.84,11111222 
TABS,ioos:station:wmo:42047:1,2013-03-01T19:30:00Z,27.8966,-93.5973,1022.39,11111222 
TABS,ioos:station:wmo:42047:1,2013-03-01T20:00:00Z,27.8966,-93.5973,1022.13,11111222 
TABS,ioos:station:wmo:42047:1,2013-03-01T20:30:00Z,27.8966,-93.5973,1021.62,11111222 
TABS,ioos:station:wmo:42047:1,2013-03-01T21:00:00Z,27.8966,-93.5973,1021.59,11111222 
TABS,ioos:station:wmo:42047:1,2013-03-01T21:30:00Z,27.8966,-93.5973,1021.56,11111222 
TABS,ioos:station:wmo:42047:1,2013-03-01T22:00:00Z,27.8966,-93.5973,1021.37,11111222 
TABS,ioos:station:wmo:42047:1,2013-03-01T22:30:00Z,27.8966,-93.5973,1021.75,11111222 
TABS,ioos:station:wmo:42047:1,2013-03-01T23:00:00Z,27.8966,-93.5973,1021.76,11111222 
TABS,ioos:station:wmo:42047:1,2013-03-01T23:30:00Z,27.8966,-93.5973,1021.83,11111222 
TABS,ioos:station:wmo:42047:1,2013-03-02T00:00:00Z,27.8966,-93.5973,1022.24,11111222 
TABS,ioos:station:wmo:42047:1,2013-03-02T00:30:00Z,27.8966,-93.5973,1022.37,11111222 
TABS,ioos:station:wmo:42047:1,2013-03-02T01:00:00Z,27.8966,-93.5973,1022.6,11111222 
TABS,ioos:station:wmo:42047:1,2013-03-02T01:30:00Z,27.8966,-93.5973,1022.96,11111222 
TABS,ioos:station:wmo:42047:1,2013-03-02T02:00:00Z,27.8966,-93.5973,1022.97,11111222 
TABS,ioos:station:wmo:42047:1,2013-03-02T02:30:00Z,27.8966,-93.5973,1023.06,11111222 
TABS,ioos:station:wmo:42047:1,2013-03-02T03:00:00Z,27.8966,-93.5973,1022.91,11111222 
TABS,ioos:station:wmo:42047:1,2013-03-02T03:30:00Z,27.8966,-93.5973,1022.89,11111222 
TABS,ioos:station:wmo:42047:1,2013-03-02T04:00:00Z,27.8966,-93.5973,1022.76,11111222 
TABS,ioos:station:wmo:42047:1,2013-03-02T04:30:00Z,27.8966,-93.5973,1022.73,11111222 
TABS,ioos:station:wmo:42047:1,2013-03-02T05:00:00Z,27.8966,-93.5973,1022.85,11111222 
TABS,ioos:station:wmo:42047:1,2013-03-02T05:30:00Z,27.8966,-93.5973,1022.72,11111222 
TABS,ioos:station:wmo:42047:1,2013-03-02T06:00:00Z,27.8966,-93.5973,1022.91,11111222 
TABS,ioos:station:wmo:42047:1,2013-03-02T06:30:00Z,27.8966,-93.5973,1022.76,11111222 
TABS,ioos:station:wmo:42047:1,2013-03-02T07:00:00Z,27.8966,-93.5973,1023.11,11111222 
TABS,ioos:station:wmo:42047:1,2013-03-02T07:30:00Z,27.8966,-93.5973,1022.57,11111222 
TABS,ioos:station:wmo:42047:1,2013-03-02T08:00:00Z,27.8966,-93.5973,1022.59,11111222 
TABS,ioos:station:wmo:42047:1,2013-03-02T08:30:00Z,27.8966,-93.5973,1022.96,11111222 
TABS,ioos:station:wmo:42047:1,2013-03-02T09:00:00Z,27.8966,-93.5973,1022.73,11111222 
TABS,ioos:station:wmo:42047:1,2013-03-02T09:30:00Z,27.8966,-93.5973,1022.67,11111222 
TABS,ioos:station:wmo:42047:1,2013-03-02T10:00:00Z,27.8966,-93.5973,1022.63,11111222 
TABS,ioos:station:wmo:42047:1,2013-03-02T10:30:00Z,27.8966,-93.5973,1022.71,11111222 
TABS,ioos:station:wmo:42047:1,2013-03-02T11:00:00Z,27.8966,-93.5973,1022.55,11111222 
TABS,ioos:station:wmo:42047:1,2013-03-02T11:30:00Z,27.8966,-93.5973,1022.28,11111222 
TABS,ioos:station:wmo:42047:1,2013-03-02T12:00:00Z,27.8966,-93.5973,1022.39,11111222 
TABS,ioos:station:wmo:42047:1,2013-03-02T12:30:00Z,27.8966,-93.5973,1022.78,11111222 
TABS,ioos:station:wmo:42047:1,2013-03-02T13:00:00Z,27.8966,-93.5973,1023.23,11111222 
TABS,ioos:station:wmo:42047:1,2013-03-02T13:30:00Z,27.8966,-93.5973,1023.54,11111222 
TABS,ioos:station:wmo:42047:1,2013-03-02T14:00:00Z,27.8966,-93.5973,1023.93,11111222 
TABS,ioos:station:wmo:42047:1,2013-03-02T14:30:00Z,27.8966,-93.5973,1024.24,11111222 
TABS,ioos:station:wmo:42047:1,2013-03-02T15:00:00Z,27.8966,-93.5973,1024.99,11111222 
TABS,ioos:station:wmo:42047:1,2013-03-02T15:30:00Z,27.8966,-93.5973,1025.07,11111222 
TABS,ioos:station:wmo:42047:1,2013-03-02T16:00:00Z,27.8966,-93.5973,1025.36,11111222 
TABS,ioos:station:wmo:42047:1,2013-03-02T16:30:00Z,27.8966,-93.5973,1025.49,11111222 
TABS,ioos:station:wmo:42047:1,2013-03-02T17:00:00Z,27.8966,-93.5973,1025.58,11111222 
TABS,ioos:station:wmo:42047:1,2013-03-02T17:30:00Z,27.8966,-93.5973,1025.39,11111222 
TABS,ioos:station:wmo:42047:1,2013-03-02T18:00:00Z,27.8966,-93.5973,1025.2,11111222 
TABS,ioos:station:wmo:42047:1,2013-03-02T18:30:00Z,27.8966,-93.5973,1025.06,11111222 
TABS,ioos:station:wmo:42047:1,2013-03-02T19:00:00Z,27.8966,-93.5973,1024.69,11111222 
TABS,ioos:station:wmo:42047:1,2013-03-02T19:30:00Z,27.8966,-93.5973,1024.36,11111222 
TABS,ioos:station:wmo:42047:1,2013-03-02T20:00:00Z,27.8966,-93.5973,1023.79,11111222 
TABS,ioos:station:wmo:42047:1,2013-03-02T20:30:00Z,27.8966,-93.5973,1023.9,11111222 
TABS,ioos:station:wmo:42047:1,2013-03-02T21:00:00Z,27.8966,-93.5973,1023.48,11111222 
TABS,ioos:station:wmo:42047:1,2013-03-02T21:30:00Z,27.8966,-93.5973,1023.14,11111222 
TABS,ioos:station:wmo:42047:1,2013-03-02T22:00:00Z,27.8966,-93.5973,1022.99,11111222 
TABS,ioos:station:wmo:42047:1,2013-03-02T22:30:00Z,27.8966,-93.5973,1023.31,11111222 
TABS,ioos:station:wmo:42047:1,2013-03-02T23:00:00Z,27.8966,-93.5973,1022.89,11111222 
TABS,ioos:station:wmo:42047:1,2013-03-02T23:30:00Z,27.8966,-93.5973,1023.39,11111222 
TABS,ioos:station:wmo:42047:1,2013-03-03T00:00:00Z,27.8966,-93.5973,1023.97,11111222 
TABS,ioos:station:wmo:42047:1,2013-03-03T00:30:00Z,27.8966,-93.5973,1024.13,11111222 
TABS,ioos:station:wmo:42047:1,2013-03-03T01:00:00Z,27.8966,-93.5973,1024.3,11111222 
TABS,ioos:station:wmo:42047:1,2013-03-03T01:30:00Z,27.8966,-93.5973,1024.57,11111222 
TABS,ioos:station:wmo:42047:1,2013-03-03T02:00:00Z,27.8966,-93.5973,1024.61,11111222 
TABS,ioos:station:wmo:42047:1,2013-03-03T02:30:00Z,27.8966,-93.5973,1025.02,11111222 
TABS,ioos:station:wmo:42047:1,2013-03-03T03:00:00Z,27.8966,-93.5973,1025.0,11111222 
TABS,ioos:station:wmo:42047:1,2013-03-03T03:30:00Z,27.8966,-93.5973,1025.41,11111222 
TABS,ioos:station:wmo:42047:1,2013-03-03T04:00:00Z,27.8966,-93.5973,1025.41,11111222 
TABS,ioos:station:wmo:42047:1,2013-03-03T04:30:00Z,27.8966,-93.5973,1025.53,11111222 
TABS,ioos:station:wmo:42047:1,2013-03-03T05:00:00Z,27.8966,-93.5973,1025.2,11111222 
TABS,ioos:station:wmo:42047:1,2013-03-03T05:30:00Z,27.8966,-93.5973,1025.4,11111222 
TABS,ioos:station:wmo:42047:1,2013-03-03T06:00:00Z,27.8966,-93.5973,1025.17,11111222 
TABS,ioos:station:wmo:42047:1,2013-03-03T06:30:00Z,27.8966,-93.5973,1025.21,11111222 
TABS,ioos:station:wmo:42047:1,2013-03-03T07:00:00Z,27.8966,-93.5973,1025.35,11111222 
TABS,ioos:station:wmo:42047:1,2013-03-03T07:30:00Z,27.8966,-93.5973,1025.32,11111222 
TABS,ioos:station:wmo:42047:1,2013-03-03T08:00:00Z,27.8966,-93.5973,1025.2,11111222 
TABS,ioos:station:wmo:42047:1,2013-03-03T08:30:00Z,27.8966,-93.5973,1025.19,11111222 
TABS,ioos:station:wmo:42047:1,2013-03-03T09:00:00Z,27.8966,-93.5973,1024.89,11111222 
TABS,ioos:station:wmo:42047:1,2013-03-03T09:30:00Z,27.8966,-93.5973,1024.6,11111222 
TABS,ioos:station:wmo:42047:1,2013-03-03T10:00:00Z,27.8966,-93.5973,1024.27,11111222 
TABS,ioos:station:wmo:42047:1,2013-03-03T10:30:00Z,27.8966,-93.5973,1024.49,11111222 
TABS,ioos:station:wmo:42047:1,2013-03-03T11:00:00Z,27.8966,-93.5973,1024.41,11111222 
TABS,ioos:station:wmo:42047:1,2013-03-03T11:30:00Z,27.8966,-93.5973,1024.78,11111222 
TABS,ioos:station:wmo:42047:1,2013-03-03T12:00:00Z,27.8966,-93.5973,1024.97,11111222 
TABS,ioos:station:wmo:42047:1,2013-03-03T12:30:00Z,27.8966,-93.5973,1025.19,11111222 
TABS,ioos:station:wmo:42047:1,2013-03-03T13:00:00Z,27.8966,-93.5973,1025.43,11111222 
TABS,ioos:station:wmo:42047:1,2013-03-03T13:30:00Z,27.8966,-93.5973,1025.82,11111222 
TABS,ioos:station:wmo:42047:1,2013-03-03T14:00:00Z,27.8966,-93.5973,1026.1,11111222 
TABS,ioos:station:wmo:42047:1,2013-03-03T14:30:00Z,27.8966,-93.5973,1026.27,11111222 
TABS,ioos:station:wmo:42047:1,2013-03-03T15:00:00Z,27.8966,-93.5973,1026.45,11111222 
TABS,ioos:station:wmo:42047:1,2013-03-03T15:30:00Z,27.8966,-93.5973,1026.53,11111222 
TABS,ioos:station:wmo:42047:1,2013-03-03T16:00:00Z,27.8966,-93.5973,1026.2,11111222 
TABS,ioos:station:wmo:42047:1,2013-03-03T16:30:00Z,27.8966,-93.5973,1026.3,11111222 
TABS,ioos:station:wmo:42047:1,2013-03-03T17:00:00Z,27.8966,-93.5973,1026.04,11111222 
TABS,ioos:station:wmo:42047:1,2013-03-03T17:30:00Z,27.8966,-93.5973,1025.76,11111222 
TABS,ioos:station:wmo:42047:1,2013-03-03T18:00:00Z,27.8966,-93.5973,1025.13,11111222 
TABS,ioos:station:wmo:42047:1,2013-03-03T18:30:00Z,27.8966,-93.5973,1024.68,11111222 
TABS,ioos:station:wmo:42047:1,2013-03-03T19:00:00Z,27.8966,-93.5973,1023.98,11111222 
TABS,ioos:station:wmo:42047:1,2013-03-03T19:30:00Z,27.8966,-93.5973,1023.46,11111222 
TABS,ioos:station:wmo:42047:1,2013-03-03T20:00:00Z,27.8966,-93.5973,1023.05,11111222 
TABS,ioos:station:wmo:42047:1,2013-03-03T20:30:00Z,27.8966,-93.5973,1022.8,11111222 
TABS,ioos:station:wmo:42047:1,2013-03-03T21:00:00Z,27.8966,-93.5973,1022.47,11111222 
TABS,ioos:station:wmo:42047:1,2013-03-03T21:30:00Z,27.8966,-93.5973,1022.15,11111222 
TABS,ioos:station:wmo:42047:1,2013-03-03T22:00:00Z,27.8966,-93.5973,1022.01,11111222 
TABS,ioos:station:wmo:42047:1,2013-03-03T22:30:00Z,27.8966,-93.5973,1021.71,11111222 
TABS,ioos:station:wmo:42047:1,2013-03-03T23:00:00Z,27.8966,-93.5973,1021.73,11111222 
TABS,ioos:station:wmo:42047:1,2013-03-03T23:30:00Z,27.8966,-93.5973,1021.8,11111222 
TABS,ioos:station:wmo:42047:1,2013-03-04T00:00:00Z,27.8966,-93.5973,1021.55,11111222 
TABS,ioos:station:wmo:42047:1,2013-03-04T00:30:00Z,27.8966,-93.5973,1021.48,11111222 
TABS,ioos:station:wmo:42047:1,2013-03-04T01:00:00Z,27.8966,-93.5973,1021.5,11111222 
TABS,ioos:station:wmo:42047:1,2013-03-04T01:30:00Z,27.8966,-93.5973,1021.47,11111222 
TABS,ioos:station:wmo:42047:1,2013-03-04T02:00:00Z,27.8966,-93.5973,1021.56,11111222 
TABS,ioos:station:wmo:42047:1,2013-03-04T02:30:00Z,27.8966,-93.5973,1021.68,11111222 
TABS,ioos:station:wmo:42047:1,2013-03-04T03:00:00Z,27.8966,-93.5973,1021.58,11111222 
TABS,ioos:station:wmo:42047:1,2013-03-04T03:30:00Z,27.8966,-93.5973,1021.61,11111222 
TABS,ioos:station:wmo:42047:1,2013-03-04T04:00:00Z,27.8966,-93.5973,1021.12,11111222 
TABS,ioos:station:wmo:42047:1,2013-03-04T04:30:00Z,27.8966,-93.5973,1020.69,11111222 
TABS,ioos:station:wmo:42047:1,2013-03-04T05:00:00Z,27.8966,-93.5973,1020.26,11111222 
TABS,ioos:station:wmo:42047:1,2013-03-04T05:30:00Z,27.8966,-93.5973,1019.61,11111222 
TABS,ioos:station:wmo:42047:1,2013-03-04T06:00:00Z,27.8966,-93.5973,1019.26,11111222 
TABS,ioos:station:wmo:42047:1,2013-03-04T06:30:00Z,27.8966,-93.5973,1019.3,11111222 
TABS,ioos:station:wmo:42047:1,2013-03-04T07:00:00Z,27.8966,-93.5973,1018.87,11111222 
TABS,ioos:station:wmo:42047:1,2013-03-04T07:30:00Z,27.8966,-93.5973,1018.43,11111222 
TABS,ioos:station:wmo:42047:1,2013-03-04T08:00:00Z,27.8966,-93.5973,1017.95,11111222 
TABS,ioos:station:wmo:42047:1,2013-03-04T08:30:00Z,27.8966,-93.5973,1018.05,11111222 
TABS,ioos:station:wmo:42047:1,2013-03-04T09:00:00Z,27.8966,-93.5973,1017.42,11111222 
TABS,ioos:station:wmo:42047:1,2013-03-04T09:30:00Z,27.8966,-93.5973,1017.05,11111222 
TABS,ioos:station:wmo:42047:1,2013-03-04T10:00:00Z,27.8966,-93.5973,1016.86,11111222 
TABS,ioos:station:wmo:42047:1,2013-03-04T10:30:00Z,27.8966,-93.5973,1016.77,11111222 
TABS,ioos:station:wmo:42047:1,2013-03-04T11:00:00Z,27.8966,-93.5973,1016.74,11111222 
TABS,ioos:station:wmo:42047:1,2013-03-04T11:30:00Z,27.8966,-93.5973,1016.45,11111222 
TABS,ioos:station:wmo:42047:1,2013-03-04T12:00:00Z,27.8966,-93.5973,1016.61,11111222 
TABS,ioos:station:wmo:42047:1,2013-03-04T12:30:00Z,27.8966,-93.5973,1017.0,11111222 
TABS,ioos:station:wmo:42047:1,2013-03-04T13:00:00Z,27.8966,-93.5973,1016.67,11111222 
TABS,ioos:station:wmo:42047:1,2013-03-04T13:30:00Z,27.8966,-93.5973,1016.92,11111222 
TABS,ioos:station:wmo:42047:1,2013-03-04T14:00:00Z,27.8966,-93.5973,1017.23,11111222 
TABS,ioos:station:wmo:42047:1,2013-03-04T14:30:00Z,27.8966,-93.5973,1016.97,11111222 
TABS,ioos:station:wmo:42047:1,2013-03-04T15:00:00Z,27.8966,-93.5973,1017.11,11111222 
TABS,ioos:station:wmo:42047:1,2013-03-04T15:30:00Z,27.8966,-93.5973,1016.87,11111222 
TABS,ioos:station:wmo:42047:1,2013-03-04T16:00:00Z,27.8966,-93.5973,1016.64,11111222 
TABS,ioos:station:wmo:42047:1,2013-03-04T16:30:00Z,27.8966,-93.5973,1016.04,11111222 
TABS,ioos:station:wmo:42047:1,2013-03-04T17:00:00Z,27.8966,-93.5973,1016.22,11111222 
TABS,ioos:station:wmo:42047:1,2013-03-04T17:30:00Z,27.8966,-93.5973,1015.52,11111222 
TABS,ioos:station:wmo:42047:1,2013-03-04T18:00:00Z,27.8966,-93.5973,1015.14,11111222 
TABS,ioos:station:wmo:42047:1,2013-03-04T18:30:00Z,27.8966,-93.5973,1014.5,11111222 
TABS,ioos:station:wmo:42047:1,2013-03-04T19:00:00Z,27.8966,-93.5973,1014.09,11111222 
TABS,ioos:station:wmo:42047:1,2013-03-04T19:30:00Z,27.8966,-93.5973,1014.13,11111222 
TABS,ioos:station:wmo:42047:1,2013-03-04T20:00:00Z,27.8966,-93.5973,1013.42,11111222 
TABS,ioos:station:wmo:42047:1,2013-03-04T20:30:00Z,27.8966,-93.5973,1013.22,11111222 
TABS,ioos:station:wmo:42047:1,2013-03-04T21:00:00Z,27.8966,-93.5973,1013.2,11111222 
TABS,ioos:station:wmo:42047:1,2013-03-04T21:30:00Z,27.8966,-93.5973,1013.17,11111222 
TABS,ioos:station:wmo:42047:1,2013-03-04T22:00:00Z,27.8966,-93.5973,1013.12,11111222 
TABS,ioos:station:wmo:42047:1,2013-03-04T22:30:00Z,27.8966,-93.5973,1013.12,11111222 
TABS,ioos:station:wmo:42047:1,2013-03-04T23:00:00Z,27.8966,-93.5973,1012.95,11111222 
TABS,ioos:station:wmo:42047:1,2013-03-04T23:30:00Z,27.8966,-93.5973,1012.76,11111222 
TABS,ioos:station:wmo:42047:1,2013-03-05T00:00:00Z,27.8966,-93.5973,1012.75,11111222 
TABS,ioos:station:wmo:42047:1,2013-03-05T00:30:00Z,27.8966,-93.5973,1013.0,11111222 
TABS,ioos:station:wmo:42047:1,2013-03-05T01:00:00Z,27.8966,-93.5973,1012.95,11111222 
TABS,ioos:station:wmo:42047:1,2013-03-05T01:30:00Z,27.8966,-93.5973,1012.49,11111222 
TABS,ioos:station:wmo:42047:1,2013-03-05T02:00:00Z,27.8966,-93.5973,1012.3,11111222 
TABS,ioos:station:wmo:42047:1,2013-03-05T02:30:00Z,27.8966,-93.5973,1012.54,11111222 
TABS,ioos:station:wmo:42047:1,2013-03-05T03:00:00Z,27.8966,-93.5973,1013.03,11111222 
TABS,ioos:station:wmo:42047:1,2013-03-05T03:30:00Z,27.8966,-93.5973,1013.06,11111222 
TABS,ioos:station:wmo:42047:1,2013-03-05T04:00:00Z,27.8966,-93.5973,1012.78,11111222 
TABS,ioos:station:wmo:42047:1,2013-03-05T04:30:00Z,27.8966,-93.5973,1013.31,11111222 
TABS,ioos:station:wmo:42047:1,2013-03-05T05:00:00Z,27.8966,-93.5973,1013.04,11111222 
TABS,ioos:station:wmo:42047:1,2013-03-05T05:30:00Z,27.8966,-93.5973,1012.92,11111222 
TABS,ioos:station:wmo:42047:1,2013-03-05T06:00:00Z,27.8966,-93.5973,1012.24,11111222 
TABS,ioos:station:wmo:42047:1,2013-03-05T06:30:00Z,27.8966,-93.5973,1012.28,11111222 
TABS,ioos:station:wmo:42047:1,2013-03-05T07:00:00Z,27.8966,-93.5973,1012.23,11111222 
TABS,ioos:station:wmo:42047:1,2013-03-05T07:30:00Z,27.8966,-93.5973,1012.22,11111222 
TABS,ioos:station:wmo:42047:1,2013-03-05T08:00:00Z,27.8966,-93.5973,1012.06,11111222 
TABS,ioos:station:wmo:42047:1,2013-03-05T08:30:00Z,27.8966,-93.5973,1011.59,11111222 
TABS,ioos:station:wmo:42047:1,2013-03-05T09:00:00Z,27.8966,-93.5973,1012.15,11111222 
TABS,ioos:station:wmo:42047:1,2013-03-05T09:30:00Z,27.8966,-93.5973,1011.95,11111222 
TABS,ioos:station:wmo:42047:1,2013-03-05T10:00:00Z,27.8966,-93.5973,1012.55,11111222 
TABS,ioos:station:wmo:42047:1,2013-03-05T10:30:00Z,27.8966,-93.5973,1012.81,11111222 
TABS,ioos:station:wmo:42047:1,2013-03-05T11:00:00Z,27.8966,-93.5973,1012.99,11111222 
TABS,ioos:station:wmo:42047:1,2013-03-05T11:30:00Z,27.8966,-93.5973,1013.22,11111222 
TABS,ioos:station:wmo:42047:1,2013-03-05T12:00:00Z,27.8966,-93.5973,1013.42,11111222 
TABS,ioos:station:wmo:42047:1,2013-03-05T12:30:00Z,27.8966,-93.5973,1013.83,11111222 
TABS,ioos:station:wmo:42047:1,2013-03-05T13:00:00Z,27.8966,-93.5973,1014.41,11111222 
TABS,ioos:station:wmo:42047:1,2013-03-05T13:30:00Z,27.8966,-93.5973,1014.57,11111222 
TABS,ioos:station:wmo:42047:1,2013-03-05T14:00:00Z,27.8966,-93.5973,1018.69,11111222 
TABS,ioos:station:wmo:42047:1,2013-03-05T14:30:00Z,27.8966,-93.5973,1019.23,11111222 
TABS,ioos:station:wmo:42047:1,2013-03-05T15:00:00Z,27.8966,-93.5973,1019.31,11111222 
TABS,ioos:station:wmo:42047:1,2013-03-05T15:30:00Z,27.8966,-93.5973,1019.28,11111222 
TABS,ioos:station:wmo:42047:1,2013-03-05T16:00:00Z,27.8966,-93.5973,1019.54,11111222 
TABS,ioos:station:wmo:42047:1,2013-03-05T16:30:00Z,27.8966,-93.5973,1019.67,11111222 
TABS,ioos:station:wmo:42047:1,2013-03-05T17:00:00Z,27.8966,-93.5973,1019.92,11111222 
TABS,ioos:station:wmo:42047:1,2013-03-05T17:30:00Z,27.8966,-93.5973,1019.44,11111222 
TABS,ioos:station:wmo:42047:1,2013-03-05T18:00:00Z,27.8966,-93.5973,1019.29,11111222 
TABS,ioos:station:wmo:42047:1,2013-03-05T18:30:00Z,27.8966,-93.5973,1019.33,11111222 
TABS,ioos:station:wmo:42047:1,2013-03-05T19:00:00Z,27.8966,-93.5973,1018.78,11111222 
TABS,ioos:station:wmo:42047:1,2013-03-05T19:30:00Z,27.8966,-93.5973,1019.27,11111222 
TABS,ioos:station:wmo:42047:1,2013-03-05T20:00:00Z,27.8966,-93.5973,1018.94,11111222 
TABS,ioos:station:wmo:42047:1,2013-03-05T20:30:00Z,27.8966,-93.5973,1019.02,11111222 
TABS,ioos:station:wmo:42047:1,2013-03-05T21:00:00Z,27.8966,-93.5973,1019.35,11111222 
TABS,ioos:station:wmo:42047:1,2013-03-05T21:30:00Z,27.8966,-93.5973,1018.97,11111222 
TABS,ioos:station:wmo:42047:1,2013-03-05T22:00:00Z,27.8966,-93.5973,1019.41,11111222 
TABS,ioos:station:wmo:42047:1,2013-03-05T22:30:00Z,27.8966,-93.5973,1019.73,11111222 
TABS,ioos:station:wmo:42047:1,2013-03-05T23:00:00Z,27.8966,-93.5973,1019.9,11111222 
TABS,ioos:station:wmo:42047:1,2013-03-05T23:30:00Z,27.8966,-93.5973,1020.21,11111222 
TABS,ioos:station:wmo:42047:1,2013-03-06T00:00:00Z,27.8966,-93.5973,1020.29,11111222 
TABS,ioos:station:wmo:42047:1,2013-03-06T00:30:00Z,27.8966,-93.5973,1020.51,11111222 
TABS,ioos:station:wmo:42047:1,2013-03-06T01:00:00Z,27.8966,-93.5973,1021.04,11111222 
TABS,ioos:station:wmo:42047:1,2013-03-06T01:30:00Z,27.8966,-93.5973,1021.18,11111222 
TABS,ioos:station:wmo:42047:1,2013-03-06T02:00:00Z,27.8966,-93.5973,1021.74,11111222 
TABS,ioos:station:wmo:42047:1,2013-03-06T02:30:00Z,27.8966,-93.5973,1021.23,11111222 
TABS,ioos:station:wmo:42047:1,2013-03-06T03:00:00Z,27.8966,-93.5973,1022.31,11111222 
TABS,ioos:station:wmo:42047:1,2013-03-06T03:30:00Z,27.8966,-93.5973,1022.82,11111222 
TABS,ioos:station:wmo:42047:1,2013-03-06T04:00:00Z,27.8966,-93.5973,1023.12,11111222 
TABS,ioos:station:wmo:42047:1,2013-03-06T04:30:00Z,27.8966,-93.5973,1023.22,11111222 
TABS,ioos:station:wmo:42047:1,2013-03-06T05:00:00Z,27.8966,-93.5973,1022.68,11111222 
TABS,ioos:station:wmo:42047:1,2013-03-06T05:30:00Z,27.8966,-93.5973,1023.01,11111222 
TABS,ioos:station:wmo:42047:1,2013-03-06T06:00:00Z,27.8966,-93.5973,1023.03,11111222 
TABS,ioos:station:wmo:42047:1,2013-03-06T06:30:00Z,27.8966,-93.5973,1023.7,11111222 
TABS,ioos:station:wmo:42047:1,2013-03-06T07:00:00Z,27.8966,-93.5973,1023.91,11111222 
TABS,ioos:station:wmo:42047:1,2013-03-06T07:30:00Z,27.8966,-93.5973,1023.81,11111222 
TABS,ioos:station:wmo:42047:1,2013-03-06T08:00:00Z,27.8966,-93.5973,1023.49,11111222 
TABS,ioos:station:wmo:42047:1,2013-03-06T08:30:00Z,27.8966,-93.5973,1023.6,11111222 
TABS,ioos:station:wmo:42047:1,2013-03-06T09:00:00Z,27.8966,-93.5973,1023.56,11111222 
TABS,ioos:station:wmo:42047:1,2013-03-06T09:30:00Z,27.8966,-93.5973,1023.57,11111222 
TABS,ioos:station:wmo:42047:1,2013-03-06T10:00:00Z,27.8966,-93.5973,1023.98,11111222 
TABS,ioos:station:wmo:42047:1,2013-03-06T10:30:00Z,27.8966,-93.5973,1024.33,11111222 
TABS,ioos:station:wmo:42047:1,2013-03-06T11:00:00Z,27.8966,-93.5973,1024.91,11111222 
TABS,ioos:station:wmo:42047:1,2013-03-06T11:30:00Z,27.8966,-93.5973,1025.03,11111222 
TABS,ioos:station:wmo:42047:1,2013-03-06T12:00:00Z,27.8966,-93.5973,1024.98,11111222 
TABS,ioos:station:wmo:42047:1,2013-03-06T12:30:00Z,27.8966,-93.5973,1026.05,11111222 
TABS,ioos:station:wmo:42047:1,2013-03-06T13:00:00Z,27.8966,-93.5973,1026.46,11111222 
TABS,ioos:station:wmo:42047:1,2013-03-06T13:30:00Z,27.8966,-93.5973,1026.92,11111222 
TABS,ioos:station:wmo:42047:1,2013-03-06T14:00:00Z,27.8966,-93.5973,1027.39,11111222 
TABS,ioos:station:wmo:42047:1,2013-03-06T14:30:00Z,27.8966,-93.5973,1027.72,11111222 
TABS,ioos:station:wmo:42047:1,2013-03-06T15:00:00Z,27.8966,-93.5973,1028.13,11111222 
TABS,ioos:station:wmo:42047:1,2013-03-06T15:30:00Z,27.8966,-93.5973,1028.13,11111222 
TABS,ioos:station:wmo:42047:1,2013-03-06T16:00:00Z,27.8966,-93.5973,1028.17,11111222 
TABS,ioos:station:wmo:42047:1,2013-03-06T16:30:00Z,27.8966,-93.5973,1027.99,11111222 
TABS,ioos:station:wmo:42047:1,2013-03-06T17:00:00Z,27.8966,-93.5973,1028.03,11111222 
TABS,ioos:station:wmo:42047:1,2013-03-06T17:30:00Z,27.8966,-93.5973,1027.77,11111222 
TABS,ioos:station:wmo:42047:1,2013-03-06T18:00:00Z,27.8966,-93.5973,1027.64,11111222 
TABS,ioos:station:wmo:42047:1,2013-03-06T18:30:00Z,27.8966,-93.5973,1026.91,11111222 